Temp
35 35 38 41 43 46 48 49 53 55 55 54 54 54 54 54 53 53 53 53 53 52 52 51 51 50 50
32 33 37 38 41 43 45 47 49 53 54 53 53 53 53 52 52 51 51 51 51 50 50 50 49 48 48
31 31 32 34 39 40 41 43 45 50 53 52 52 52 52 51 51 50 49 49 48 48 48 48 47 47 46
34 31 32 32 39 39 37 38 41 45 49 49 50 51 50 50 49 48 47 47 47 47 47 46 45 44 44
34 33 31 33 37 39 40 39 37 40 41 44 45 44 45 48 46 46 46 46 46 46 46 46 44 43 43
42 39 38 40 40 38 38 35 33 38 39 38 41 40 41 40 45 45 45 45 45 45 46 45 44 43 42
44 43 40 40 39 37 39 39 40 35 40 36 35 37 38 41 45 45 45 45 45 45 45 44 43 42 42
47 48 49 43 43 42 41 38 33 35 41 34 35 36 36 37 44 44 44 44 44 44 45 43 42 42 42
48 49 46 44 44 40 36 34 32 31 37 35 32 34 34 35 37 44 44 44 44 44 44 43 42 42 37
45 44 45 44 45 43 39 36 37 29 34 34 30 30 27 31 33 36 39 44 44 43 44 43 42 31 29
42 41 40 40 41 42 41 41 37 34 34 36 30 30 30 27 30 33 34 34 34 36 43 43 40 35 28
38 36 36 37 39 40 40 41 41 37 35 36 30 32 27 25 24 28 29 29 30 29 29 33 36 36 36
36 36 37 38 38 36 35 33 32 34 35 34 32 32 32 25 23 24 25 26 27 26 26 26 25 25 23
37 37 35 32 32 33 32 32 31 29 32 31 31 31 26 26 25 24 24 22 24 24 24 24 25 25 24
36 33 33 33 32 32 32 31 29 24 23 25 26 27 27 25 22 25 22 21 23 22 22 21 23 24 24
35 33 32 32 30 30 30 30 26 25 23 22 22 22 22 25 28 23 22 22 22 22 21 19 19 22 23
33 32 31 30 30 28 28 27 25 24 22 22 23 23 20 18 22 29 21 21 20 18 19 17 17 21 23
MSLP
1026.37 1026.98 1027.14 1027.24 1027.50 1027.72 1027.74 1028.02 1028.25 1028.45 1028.78 1029.23 1029.74 1030.35 1030.91 1031.37 1031.72 1031.98 1032.33 1032.57 1032.66 1032.87 1033.16 1033.40 1033.54 1033.70 1033.80
1026.09 1026.72 1026.79 1026.94 1027.08 1027.48 1027.69 1027.65 1027.90 1028.06 1028.33 1028.72 1029.00 1029.82 1030.47 1030.94 1031.34 1031.70 1031.96 1032.33 1032.58 1032.78 1032.97 1033.18 1033.39 1033.53 1033.65
1025.40 1026.14 1026.56 1026.79 1027.05 1027.40 1027.53 1027.68 1027.78 1027.83 1028.11 1028.42 1028.76 1029.20 1029.89 1030.53 1030.87 1031.16 1031.57 1031.92 1032.37 1032.70 1032.89 1032.99 1033.25 1033.47 1033.73
1024.32 1025.08 1025.57 1026.19 1026.35 1026.76 1027.46 1027.50 1027.59 1027.61 1027.71 1028.10 1028.63 1028.91 1029.41 1030.01 1030.57 1030.87 1031.23 1031.72 1032.18 1032.47 1032.64 1032.94 1033.15 1033.45 1033.61
1022.99 1023.80 1024.35 1025.14 1024.94 1024.92 1025.93 1026.93 1027.32 1027.10 1027.52 1027.74 1028.24 1028.71 1029.06 1029.54 1030.02 1030.54 1030.87 1031.27 1031.68 1032.18 1032.35 1032.60 1032.97 1033.26 1033.41
1020.77 1021.36 1021.82 1022.34 1023.17 1023.94 1024.71 1026.01 1027.07 1026.48 1026.58 1027.47 1027.65 1028.16 1028.49 1028.99 1029.55 1030.09 1030.46 1030.77 1031.10 1031.46 1031.89 1032.13 1032.61 1032.94 1033.15
1018.17 1018.76 1019.90 1020.38 1021.94 1022.79 1023.09 1023.29 1024.14 1024.80 1025.30 1026.45 1027.42 1027.63 1028.03 1028.52 1029.02 1029.65 1030.03 1030.26 1030.73 1030.94 1031.31 1031.82 1032.22 1032.56 1032.67
1016.45 1017.23 1017.11 1018.37 1019.35 1019.57 1020.82 1022.76 1024.12 1024.66 1024.58 1025.61 1026.59 1026.94 1027.87 1027.99 1028.28 1028.90 1029.30 1029.66 1030.17 1030.46 1030.70 1031.32 1031.81 1032.14 1032.22
1013.46 1015.18 1015.87 1016.82 1017.90 1019.66 1020.88 1022.18 1023.10 1023.57 1023.98 1024.36 1025.66 1026.30 1027.40 1027.64 1027.86 1028.10 1028.51 1029.02 1029.52 1029.90 1030.17 1030.74 1031.29 1031.57 1031.88
1013.60 1014.19 1015.04 1015.52 1016.39 1016.89 1018.23 1019.54 1020.71 1022.45 1022.57 1023.68 1024.74 1025.52 1026.99 1027.22 1027.43 1027.66 1027.93 1028.28 1028.80 1029.27 1029.51 1030.06 1030.49 1031.43 1031.82
1012.44 1013.43 1014.29 1015.15 1015.71 1016.22 1016.71 1017.22 1018.32 1019.38 1020.33 1021.46 1023.14 1024.14 1024.92 1026.13 1026.53 1026.86 1027.42 1027.95 1028.51 1028.85 1028.90 1029.26 1029.94 1030.60 1031.30
1011.67 1012.60 1013.23 1013.97 1014.50 1015.10 1015.37 1016.13 1016.88 1017.47 1019.08 1019.97 1021.51 1022.42 1023.45 1025.27 1025.88 1026.58 1027.10 1027.62 1028.11 1028.87 1029.29 1029.55 1029.90 1030.12 1030.44
1010.88 1011.24 1011.36 1012.49 1013.79 1014.57 1015.38 1016.26 1017.40 1018.10 1018.56 1019.46 1020.22 1021.37 1022.28 1023.65 1024.80 1025.64 1026.76 1027.62 1028.01 1028.49 1029.13 1029.59 1029.96 1030.30 1030.69
1009.64 1010.30 1011.59 1012.24 1012.90 1013.68 1014.97 1016.14 1017.22 1018.18 1018.63 1019.27 1019.88 1020.71 1021.91 1023.01 1023.77 1025.03 1025.86 1026.92 1027.75 1028.34 1028.77 1029.37 1029.82 1030.04 1030.16
1008.74 1009.38 1010.07 1011.42 1011.74 1012.46 1013.65 1015.16 1016.16 1017.22 1018.23 1019.51 1020.53 1021.25 1021.74 1022.59 1024.00 1024.47 1025.53 1026.41 1027.11 1027.86 1028.54 1029.00 1029.23 1029.45 1029.70
1007.78 1008.32 1008.92 1009.89 1010.98 1012.14 1012.77 1013.62 1015.09 1016.99 1017.37 1019.00 1019.97 1021.55 1022.70 1023.49 1023.43 1024.26 1025.29 1026.03 1026.69 1027.51 1028.10 1028.66 1028.96 1028.96 1029.02
1006.96 1008.04 1007.94 1008.53 1010.57 1011.35 1012.13 1013.06 1014.70 1016.36 1017.21 1018.57 1019.56 1020.53 1021.94 1023.01 1023.69 1023.77 1024.62 1025.71 1026.54 1027.53 1027.90 1028.25 1028.46 1028.53 1028.65
Wind_Speed
2 2 4 6 5 4 6 6 7 17 19 19 18 15 14 13 12 12 10 10 9 8 6 5 4 2 0
3 3 5 5 6 7 5 5 7 15 19 18 19 19 17 16 15 13 12 11 9 9 8 7 5 3 2
4 2 2 3 4 3 3 3 3 12 18 18 19 19 19 18 17 16 14 12 11 10 9 8 6 3 1
3 4 3 2 5 8 6 3 6 5 10 12 16 18 19 18 17 16 15 14 12 11 10 8 6 4 3
4 4 5 5 14 9 9 7 3 4 6 7 8 8 9 16 13 16 16 15 13 12 11 10 9 6 4
10 9 10 9 10 9 8 7 6 6 8 7 8 8 8 5 14 17 17 15 14 13 12 12 9 7 6
17 14 11 12 12 11 13 12 10 6 10 9 6 8 6 7 18 18 17 15 14 13 13 12 10 9 7
15 17 17 15 19 18 15 8 4 4 12 7 7 7 6 6 20 20 18 17 15 13 15 13 11 10 9
27 25 21 25 20 11 11 11 6 5 11 5 5 7 6 6 8 21 19 18 16 14 17 14 12 12 4
16 15 19 20 30 20 15 15 9 5 9 9 5 6 4 4 6 6 8 19 18 15 17 16 16 4 3
12 10 10 13 14 13 16 15 14 6 10 10 6 7 3 4 4 6 7 4 3 4 14 14 11 8 4
11 11 12 13 14 14 14 11 8 4 16 13 6 8 7 4 4 4 4 4 4 5 3 6 7 8 6
11 11 13 11 10 9 8 8 7 9 14 10 7 10 9 6 6 5 6 4 3 4 4 4 3 3 2
12 9 8 9 10 10 8 10 8 5 9 10 9 12 5 4 5 7 4 6 5 3 3 3 3 3 3
11 10 11 11 11 12 11 11 9 10 7 6 7 6 5 9 4 6 6 3 5 5 3 3 3 4 4
10 11 12 12 10 10 10 13 11 9 10 7 10 6 3 3 2 6 3 4 4 5 3 3 1 3 4
11 11 11 10 16 11 12 10 11 10 9 9 9 9 8 3 2 6 6 4 5 3 3 3 3 3 3
Wind_Direction
116 162 170 173 179 188 172 178 178 168 161 161 151 151 165 181 183 184 186 190 187 183 185 189 174 176 249
163 162 194 193 176 175 192 186 178 180 171 168 162 169 180 185 186 188 189 192 189 189 193 198 194 205 234
155 149 151 172 158 145 174 176 190 183 178 176 177 177 184 189 190 188 189 189 193 199 202 201 199 191 232
154 151 159 185 182 182 191 200 184 192 184 176 182 185 187 191 193 191 188 194 200 201 196 199 182 186 208
155 158 163 164 195 182 192 180 205 171 169 183 180 180 189 197 194 188 191 195 201 208 208 200 189 194 210
197 200 193 190 183 188 160 159 203 204 178 186 175 184 184 174 186 191 198 198 200 205 214 196 198 201 223
200 202 185 180 169 180 193 192 207 165 179 186 185 191 179 180 190 199 204 201 205 209 212 197 201 211 221
207 214 216 177 189 188 186 160 70 153 182 190 177 195 172 181 193 206 206 205 209 211 210 196 206 219 233
208 217 191 187 182 152 166 167 175 183 199 146 177 166 178 193 199 206 208 210 209 215 203 197 211 225 209
206 202 195 187 183 184 172 184 176 168 190 171 151 144 183 195 187 196 204 211 208 214 209 203 218 144 155
198 193 182 186 188 190 184 185 185 184 178 160 160 163 134 144 183 190 184 183 153 201 227 205 187 174 183
185 186 181 188 191 191 184 193 197 160 165 167 151 171 146 146 159 149 153 148 141 159 150 170 186 201 211
194 197 195 188 173 159 142 112 95 142 167 171 160 168 171 150 153 154 137 177 158 146 152 157 161 160 199
198 183 164 163 167 166 169 166 154 142 168 156 153 156 135 129 127 145 135 165 159 155 140 147 169 193 208
188 174 171 175 177 169 166 164 170 158 136 106 97 92 104 138 125 154 146 131 153 146 139 172 192 196 209
189 183 175 174 163 167 162 167 152 165 139 139 131 113 85 45 88 137 122 139 147 159 135 156 185 211 204
179 186 169 157 166 166 162 152 149 152 140 144 150 146 145 138 108 172 139 145 133 137 151 162 186 192 198